TimeEST,TemperatureF,Dew PointF,Humidity,Sea Level PressureIn,VisibilityMPH,Wind Direction,Wind SpeedMPH,Gust SpeedMPH,PrecipitationIn,Events,Conditions,WindDirDegrees,DateUTC
12:53 AM,39.0,28.0,65,30.46,10.0,North,4.6,-,N/A,,Mostly Cloudy,10,2014-01-09 05:53:00
1:53 AM,41.0,28.9,62,30.44,10.0,NNE,8.1,-,N/A,,Overcast,20,2014-01-09 06:53:00
2:53 AM,41.0,30.0,65,30.44,10.0,NNE,8.1,-,N/A,,Overcast,20,2014-01-09 07:53:00
3:53 AM,41.0,30.0,65,30.44,10.0,NNE,6.9,-,N/A,,Overcast,20,2014-01-09 08:53:00
4:53 AM,41.0,30.0,65,30.43,10.0,North,9.2,-,N/A,,Overcast,10,2014-01-09 09:53:00
5:53 AM,43.0,32.0,65,30.43,10.0,NNE,6.9,-,N/A,,Overcast,20,2014-01-09 10:53:00
6:53 AM,44.1,33.1,65,30.44,10.0,NNW,5.8,-,N/A,,Overcast,340,2014-01-09 11:53:00
7:53 AM,45.0,32.0,60,30.46,10.0,North,6.9,-,N/A,,Overcast,10,2014-01-09 12:53:00
8:53 AM,48.9,32.0,52,30.46,10.0,ENE,8.1,-,N/A,,Mostly Cloudy,60,2014-01-09 13:53:00
9:53 AM,55.0,35.1,47,30.47,10.0,NE,8.1,-,N/A,,Scattered Clouds,40,2014-01-09 14:53:00
10:53 AM,60.1,37.9,44,30.47,10.0,NE,9.2,-,N/A,,Scattered Clouds,50,2014-01-09 15:53:00
11:53 AM,63.0,39.0,41,30.45,10.0,NE,10.4,-,N/A,,Mostly Cloudy,40,2014-01-09 16:53:00
12:53 PM,61.0,41.0,48,30.41,10.0,NE,10.4,-,N/A,,Overcast,40,2014-01-09 17:53:00
1:53 PM,62.1,42.1,48,30.38,10.0,ENE,9.2,-,N/A,,Overcast,60,2014-01-09 18:53:00
2:41 PM,62.6,42.8,48,30.37,10.0,ENE,10.4,-,N/A,,Overcast,60,2014-01-09 19:41:00
2:53 PM,61.0,44.1,54,30.38,10.0,ENE,9.2,-,N/A,,Overcast,60,2014-01-09 19:53:00
3:53 PM,62.1,48.0,60,30.37,10.0,ENE,9.2,-,N/A,,Overcast,60,2014-01-09 20:53:00
4:53 PM,61.0,52.0,72,30.36,10.0,East,10.4,-,N/A,,Mostly Cloudy,80,2014-01-09 21:53:00
5:07 PM,60.8,51.8,72,30.36,10.0,ENE,12.7,-,N/A,,Mostly Cloudy,70,2014-01-09 22:07:00
6:31 PM,57.2,51.8,82,30.36,10.0,ENE,11.5,-,N/A,,Overcast,70,2014-01-09 23:31:00
6:53 PM,57.9,52.0,81,30.38,10.0,ENE,8.1,-,N/A,,Overcast,70,2014-01-09 23:53:00
7:08 PM,59.0,51.8,77,30.39,10.0,ENE,11.5,-,N/A,,Overcast,70,2014-01-10 00:08:00
7:32 PM,57.2,51.8,82,30.39,8.0,NE,10.4,-,0.00,Rain,Light Rain,40,2014-01-10 00:32:00
7:46 PM,57.2,53.6,88,30.40,3.0,NE,6.9,-,0.00,Rain,Light Rain,40,2014-01-10 00:46:00
7:50 PM,57.2,53.6,88,30.40,2.0,NNE,5.8,-,0.00,Rain,Light Rain,20,2014-01-10 00:50:00
7:53 PM,57.0,53.1,87,30.40,2.0,NNE,5.8,-,0.00,Rain,Light Rain,20,2014-01-10 00:53:00
8:23 PM,57.2,53.6,88,30.39,2.0,ENE,6.9,-,0.01,Rain,Light Rain,60,2014-01-10 01:23:00
8:34 PM,57.2,53.6,88,30.40,7.0,ENE,4.6,-,0.02,Rain,Light Rain,60,2014-01-10 01:34:00
8:53 PM,57.0,53.1,87,30.40,9.0,NE,4.6,-,0.02,,Overcast,40,2014-01-10 01:53:00
9:18 PM,55.4,53.6,94,30.39,10.0,NE,9.2,-,N/A,,Overcast,50,2014-01-10 02:18:00
9:48 PM,55.4,53.6,94,30.39,10.0,ENE,9.2,-,N/A,,Overcast,70,2014-01-10 02:48:00
9:53 PM,55.9,53.1,90,30.38,10.0,ENE,10.4,-,N/A,,Overcast,70,2014-01-10 02:53:00
10:53 PM,57.0,53.1,87,30.36,10.0,ENE,9.2,-,N/A,,Overcast,60,2014-01-10 03:53:00
11:53 PM,57.0,53.1,87,30.34,10.0,ENE,8.1,-,0.00,,Mostly Cloudy,60,2014-01-10 04:53:00